Time,TemperatureF,DewpointF,PressureIn,WindDirection,WindDirectionDegrees,WindSpeedMPH,WindSpeedGustMPH,Humidity,HourlyPrecipIn,Conditions,Clouds,dailyrainin,SoftwareType,DateUTC
2013-01-31 00:01:00,48.0,48.0,29.45,SW,223,18.4,18.4,100,0.00,RA,,0.00,WeatherDisplay:10.37,2013-01-31 05:01:00,
2013-01-31 00:02:00,48.0,48.0,29.45,ESE,104,18.4,18.4,100,0.00,RA,,0.00,WeatherDisplay:10.37,2013-01-31 05:02:00,
2013-01-31 00:03:00,48.0,48.0,29.45,SSW,195,11.5,11.5,100,0.00,RA,,0.00,WeatherDisplay:10.37,2013-01-31 05:03:00,
2013-01-31 00:08:00,47.9,47.9,29.44,SSW,205,6.9,6.9,100,0.00,RA,,0.00,WeatherDisplay:10.37,2013-01-31 05:08:00,
2013-01-31 00:13:00,47.8,47.8,29.43,SSW,208,8.1,8.1,100,0.00,OVC,,0.00,WeatherDisplay:10.37,2013-01-31 05:13:00,
2013-01-31 00:18:00,47.9,47.9,29.43,South,188,8.1,8.1,100,0.00,OVC,,0.00,WeatherDisplay:10.37,2013-01-31 05:18:00,
2013-01-31 00:23:00,47.8,47.8,29.42,West,271,15.0,15.0,100,0.00,OVC,,0.00,WeatherDisplay:10.37,2013-01-31 05:23:00,
2013-01-31 00:28:00,47.8,47.8,29.42,SSW,206,10.4,10.4,100,0.00,OVC,,0.00,WeatherDisplay:10.37,2013-01-31 05:28:00,
2013-01-31 00:33:00,47.8,47.8,29.42,South,184,15.0,15.0,100,0.00,OVC,,0.00,WeatherDisplay:10.37,2013-01-31 05:33:00,
2013-01-31 00:38:00,47.9,47.9,29.41,SSW,199,19.6,19.6,100,0.00,OVC,,0.00,WeatherDisplay:10.37,2013-01-31 05:38:00,
2013-01-31 00:43:00,48.0,48.0,29.41,ENE,69,12.7,12.7,100,0.00,OVC,,0.00,WeatherDisplay:10.37,2013-01-31 05:43:00,
2013-01-31 00:48:00,48.2,48.2,29.41,WSW,240,24.2,24.2,100,0.00,OVC,,0.00,WeatherDisplay:10.37,2013-01-31 05:48:00,
2013-01-31 00:53:00,48.5,48.5,29.40,SSE,164,13.8,13.8,100,0.00,OVC,,0.00,WeatherDisplay:10.37,2013-01-31 05:53:00,
2013-01-31 00:59:00,48.5,48.5,29.40,East,99,12.7,12.7,100,0.01,RA,,0.01,WeatherDisplay:10.37,2013-01-31 05:59:00,
2013-01-31 01:04:00,48.9,48.9,29.40,SE,137,17.3,17.3,100,0.01,-RA,,0.01,WeatherDisplay:10.37,2013-01-31 06:04:00,
2013-01-31 01:09:00,49.5,49.5,29.40,South,188,17.3,17.3,100,0.02,-RA,,0.02,WeatherDisplay:10.37,2013-01-31 06:09:00,
2013-01-31 01:14:00,50.3,50.3,29.40,SE,144,13.8,13.8,100,0.02,-RA,,0.02,WeatherDisplay:10.37,2013-01-31 06:14:00,
2013-01-31 01:19:00,51.2,51.2,29.39,East,100,19.6,19.6,100,0.02,-RA,,0.02,WeatherDisplay:10.37,2013-01-31 06:19:00,
2013-01-31 01:24:00,51.5,51.5,29.39,SSW,213,21.9,21.9,100,0.02,-RA,,0.02,WeatherDisplay:10.37,2013-01-31 06:24:00,
2013-01-31 01:29:00,51.5,51.5,29.39,SE,134,18.4,18.4,100,0.02,-RA,,0.02,WeatherDisplay:10.37,2013-01-31 06:29:00,
2013-01-31 01:34:00,51.5,51.5,29.38,SE,138,19.6,19.6,100,0.02,-RA,,0.02,WeatherDisplay:10.37,2013-01-31 06:34:00,
2013-01-31 01:39:00,51.2,51.2,29.38,SSW,199,10.4,11.0,100,0.02,-RA,,0.02,WeatherDisplay:10.37,2013-01-31 06:39:00,
2013-01-31 01:44:00,51.0,51.0,29.37,WSW,258,17.3,17.3,100,0.02,-RA,,0.02,WeatherDisplay:10.37,2013-01-31 06:44:00,
2013-01-31 01:49:00,51.0,51.0,29.37,SSW,196,25.3,25.3,100,0.02,-RA,,0.02,WeatherDisplay:10.37,2013-01-31 06:49:00,
2013-01-31 01:54:00,51.0,51.0,29.36,ESE,119,8.1,8.1,100,0.02,-RA,,0.02,WeatherDisplay:10.37,2013-01-31 06:54:00,
2013-01-31 01:59:00,51.2,51.2,29.36,SW,232,10.4,10.4,100,0.01,-RA,,0.02,WeatherDisplay:10.37,2013-01-31 06:59:00,
2013-01-31 02:04:00,51.2,51.2,29.35,WSW,256,15.0,15.0,100,0.00,OVC,,0.02,WeatherDisplay:10.37,2013-01-31 07:04:00,
2013-01-31 02:09:00,51.2,51.2,29.34,SSW,198,15.0,15.0,100,0.00,OVC,,0.02,WeatherDisplay:10.37,2013-01-31 07:09:00,
2013-01-31 02:14:00,51.3,51.3,29.33,NE,45,10.4,10.4,100,0.00,OVC,,0.02,WeatherDisplay:10.37,2013-01-31 07:14:00,
2013-01-31 02:19:00,51.3,51.3,29.33,ESE,120,8.1,8.1,100,0.00,OVC,,0.02,WeatherDisplay:10.37,2013-01-31 07:19:00,
2013-01-31 02:24:00,51.2,51.2,29.33,SSE,152,15.0,15.0,100,0.00,OVC,,0.02,WeatherDisplay:10.37,2013-01-31 07:24:00,
2013-01-31 02:29:00,51.0,51.0,29.32,South,175,8.1,8.1,100,0.00,OVC,,0.02,WeatherDisplay:10.37,2013-01-31 07:29:00,
2013-01-31 02:34:00,51.0,51.0,29.32,SW,223,6.9,6.9,100,0.00,OVC,,0.02,WeatherDisplay:10.37,2013-01-31 07:34:00,
2013-01-31 02:39:00,51.0,51.0,29.31,SSE,161,10.4,10.4,100,0.00,OVC,,0.02,WeatherDisplay:10.37,2013-01-31 07:39:00,
2013-01-31 02:44:00,51.0,51.0,29.31,West,261,10.4,10.4,100,0.00,OVC,,0.02,WeatherDisplay:10.37,2013-01-31 07:44:00,
2013-01-31 02:49:00,51.2,51.2,29.30,SSW,192,21.9,21.9,100,0.00,OVC,,0.02,WeatherDisplay:10.37,2013-01-31 07:49:00,
2013-01-31 02:54:00,51.5,51.5,29.30,ENE,78,21.9,21.9,100,0.00,OVC,,0.02,WeatherDisplay:10.37,2013-01-31 07:54:00,
2013-01-31 02:59:00,51.5,51.5,29.28,ENE,64,11.5,11.5,100,0.00,OVC,,0.02,WeatherDisplay:10.37,2013-01-31 07:59:00,
2013-01-31 03:04:00,51.7,51.7,29.27,East,86,11.5,11.5,100,0.00,OVC,,0.02,WeatherDisplay:10.37,2013-01-31 08:04:00,
2013-01-31 03:10:00,51.9,51.9,29.28,South,185,13.8,13.8,100,0.00,OVC,,0.02,WeatherDisplay:10.37,2013-01-31 08:10:00,
2013-01-31 03:15:00,52.0,52.0,29.27,SSE,155,21.9,21.9,100,0.00,OVC,,0.02,WeatherDisplay:10.37,2013-01-31 08:15:00,
2013-01-31 03:20:00,52.3,52.3,29.26,WNW,284,15.0,15.0,100,0.00,OVC,,0.02,WeatherDisplay:10.37,2013-01-31 08:20:00,
2013-01-31 03:25:00,52.2,52.2,29.25,ESE,113,15.0,15.0,100,0.00,OVC,,0.02,WeatherDisplay:10.37,2013-01-31 08:25:00,
2013-01-31 03:30:00,52.2,52.2,29.25,SW,219,15.0,15.0,100,0.00,OVC,,0.02,WeatherDisplay:10.37,2013-01-31 08:30:00,
2013-01-31 03:35:00,52.2,52.2,29.24,SE,124,8.1,8.1,100,0.00,OVC,,0.02,WeatherDisplay:10.37,2013-01-31 08:35:00,
2013-01-31 03:40:00,51.9,51.9,29.24,East,96,19.6,19.6,100,0.00,OVC,,0.02,WeatherDisplay:10.37,2013-01-31 08:40:00,
2013-01-31 03:45:00,52.0,52.0,29.23,ESE,123,13.8,13.8,100,0.00,OVC,,0.02,WeatherDisplay:10.37,2013-01-31 08:45:00,
2013-01-31 03:50:00,52.0,52.0,29.23,SE,126,15.0,15.0,100,0.00,OVC,,0.02,WeatherDisplay:10.37,2013-01-31 08:50:00,
2013-01-31 03:55:00,51.9,51.9,29.22,WSW,239,18.4,18.4,100,0.00,OVC,,0.02,WeatherDisplay:10.37,2013-01-31 08:55:00,
2013-01-31 04:00:00,52.0,52.0,29.22,SE,138,17.3,17.3,100,0.00,OVC,,0.02,WeatherDisplay:10.37,2013-01-31 09:00:00,
2013-01-31 04:05:00,52.0,52.0,29.21,SSE,154,11.5,11.6,100,0.00,OVC,,0.02,WeatherDisplay:10.37,2013-01-31 09:05:00,
2013-01-31 04:10:00,51.7,51.7,29.20,East,93,15.0,15.0,100,0.00,OVC,,0.02,WeatherDisplay:10.37,2013-01-31 09:10:00,
2013-01-31 04:15:00,51.6,51.6,29.20,SE,126,18.4,18.4,100,0.00,OVC,,0.02,WeatherDisplay:10.37,2013-01-31 09:15:00,
2013-01-31 04:20:00,51.6,51.6,29.19,South,181,18.4,18.4,100,0.00,OVC,,0.02,WeatherDisplay:10.37,2013-01-31 09:20:00,
2013-01-31 04:25:00,51.3,51.3,29.18,ENE,65,19.6,19.6,100,0.00,OVC,,0.02,WeatherDisplay:10.37,2013-01-31 09:25:00,
2013-01-31 04:30:00,51.2,51.2,29.18,West,271,13.8,13.8,100,0.00,OVC,,0.02,WeatherDisplay:10.37,2013-01-31 09:30:00,
2013-01-31 04:35:00,51.0,51.0,29.17,North,0,17.3,17.3,100,0.00,OVC,,0.02,WeatherDisplay:10.37,2013-01-31 09:35:00,
2013-01-31 04:40:00,51.0,51.0,29.16,NW,306,17.3,17.3,100,0.00,OVC,,0.02,WeatherDisplay:10.37,2013-01-31 09:40:00,
2013-01-31 04:45:00,51.0,51.0,29.15,WSW,251,26.5,26.5,100,0.00,OVC,,0.02,WeatherDisplay:10.37,2013-01-31 09:45:00,
2013-01-31 04:50:00,50.9,50.9,29.15,West,260,19.6,19.6,100,0.00,OVC,,0.02,WeatherDisplay:10.37,2013-01-31 09:50:00,
2013-01-31 04:55:00,50.7,50.7,29.15,ESE,104,11.5,11.5,100,0.00,OVC,,0.02,WeatherDisplay:10.37,2013-01-31 09:55:00,
2013-01-31 05:00:00,50.6,50.6,29.13,SE,136,15.0,15.0,100,0.00,OVC,,0.02,WeatherDisplay:10.37,2013-01-31 10:00:00,
2013-01-31 05:05:00,50.7,50.7,29.13,SW,227,11.5,11.5,100,0.00,OVC,,0.02,WeatherDisplay:10.37,2013-01-31 10:05:00,
2013-01-31 05:10:00,50.7,50.7,29.13,SE,136,27.6,27.6,100,0.00,OVC,,0.02,WeatherDisplay:10.37,2013-01-31 10:10:00,
2013-01-31 05:15:00,50.7,50.7,29.13,SW,236,15.0,15.0,100,0.00,OVC,,0.02,WeatherDisplay:10.37,2013-01-31 10:15:00,
2013-01-31 05:20:00,50.6,50.6,29.13,ESE,110,15.0,15.0,100,0.00,OVC,,0.02,WeatherDisplay:10.37,2013-01-31 10:20:00,
2013-01-31 05:25:00,50.6,50.6,29.13,ESE,106,11.5,11.5,100,0.00,OVC,,0.02,WeatherDisplay:10.37,2013-01-31 10:25:00,
2013-01-31 05:30:00,50.6,50.6,29.12,ESE,112,15.0,15.0,100,0.00,OVC,,0.02,WeatherDisplay:10.37,2013-01-31 10:30:00,
2013-01-31 05:35:00,50.7,50.7,29.11,South,179,15.0,15.0,100,0.00,OVC,,0.02,WeatherDisplay:10.37,2013-01-31 10:35:00,
2013-01-31 05:40:00,50.7,50.7,29.11,WSW,257,12.7,12.7,100,0.00,OVC,,0.02,WeatherDisplay:10.37,2013-01-31 10:40:00,
2013-01-31 05:45:00,50.9,50.9,29.10,SSE,154,6.0,24.0,100,0.00,RA,,0.02,WeatherDisplay:10.37,2013-01-31 10:45:00,
2013-01-31 06:00:00,51.2,51.2,29.10,SE,134,6.0,27.0,100,0.00,CLR,,0.02,WeatherDisplay:10.37,2013-01-31 11:00:00,
2013-01-31 06:15:00,51.3,51.3,29.07,SE,137,5.0,31.0,100,0.00,CLR,,0.02,WeatherDisplay:10.37,2013-01-31 11:15:00,
2013-01-31 06:30:00,51.7,51.7,29.05,SE,145,8.0,28.0,100,0.01,RA,,0.03,WeatherDisplay:10.37,2013-01-31 11:30:00,
2013-01-31 06:45:00,51.9,51.9,29.03,SE,134,5.0,24.0,100,0.02,RA,,0.05,WeatherDisplay:10.37,2013-01-31 11:45:00,
2013-01-31 07:00:00,51.6,51.6,29.01,SE,125,6.0,27.0,100,0.01,RA,,0.06,WeatherDisplay:10.37,2013-01-31 12:00:00,
2013-01-31 07:15:00,51.9,51.9,28.97,ESE,120,18.4,18.4,100,0.05,RA,,0.07,WeatherDisplay:10.37,2013-01-31 12:15:00,
2013-01-31 07:26:00,52.2,52.2,28.97,ESE,123,20.7,20.7,100,0.05,RA,,0.07,WeatherDisplay:10.37,2013-01-31 12:26:00,
2013-01-31 07:31:00,52.3,52.3,28.96,WSW,251,21.9,21.9,100,0.05,OVC,,0.07,WeatherDisplay:10.37,2013-01-31 12:31:00,
2013-01-31 07:36:00,52.8,52.8,28.94,SW,226,17.3,17.3,100,0.04,OVC,,0.07,WeatherDisplay:10.37,2013-01-31 12:36:00,
2013-01-31 07:41:00,52.9,52.9,28.95,WSW,247,15.0,15.0,100,0.03,OVC,,0.07,WeatherDisplay:10.37,2013-01-31 12:41:00,
2013-01-31 07:46:00,53.2,53.2,28.95,SW,233,35.7,35.7,100,0.03,OVC,,0.07,WeatherDisplay:10.37,2013-01-31 12:46:00,
2013-01-31 07:51:00,53.5,53.5,28.96,North,0,47.2,47.2,100,0.02,OVC,,0.07,WeatherDisplay:10.37,2013-01-31 12:51:00,
2013-01-31 07:57:00,53.5,53.5,28.96,West,278,80.5,80.5,100,0.02,RA,,0.08,WeatherDisplay:10.37,2013-01-31 12:57:00,
2013-01-31 08:02:00,53.5,53.5,28.96,ESE,117,34.5,34.5,100,0.02,-RA,,0.08,WeatherDisplay:10.37,2013-01-31 13:02:00,
2013-01-31 08:07:00,53.5,53.5,28.98,South,188,40.3,40.3,100,0.02,-RA,,0.08,WeatherDisplay:10.37,2013-01-31 13:07:00,
2013-01-31 08:12:00,53.5,53.5,28.99,East,83,33.4,33.4,100,0.02,-RA,,0.08,WeatherDisplay:10.37,2013-01-31 13:12:00,
2013-01-31 08:17:00,53.5,53.5,28.99,South,172,47.2,47.2,100,0.01,-RA,,0.08,WeatherDisplay:10.37,2013-01-31 13:17:00,
2013-01-31 08:22:00,53.2,53.2,28.99,East,83,54.0,54.0,100,0.01,-RA,,0.08,WeatherDisplay:10.37,2013-01-31 13:22:00,
2013-01-31 08:27:00,52.8,52.8,28.98,SW,223,18.4,18.4,100,0.01,-RA,,0.08,WeatherDisplay:10.37,2013-01-31 13:27:00,
2013-01-31 08:32:00,52.2,52.2,28.99,South,189,19.6,19.6,100,0.02,-RA,,0.09,WeatherDisplay:10.37,2013-01-31 13:32:00,
2013-01-31 08:37:00,51.9,51.9,28.97,SW,229,17.3,17.3,100,0.03,-RA,,0.10,WeatherDisplay:10.37,2013-01-31 13:37:00,
2013-01-31 08:42:00,51.3,51.3,28.96,SSW,209,21.0,21.0,100,0.03,-RA,,0.10,WeatherDisplay:10.37,2013-01-31 13:42:00,
2013-01-31 08:47:00,51.0,51.0,28.97,SW,217,15.0,15.0,100,0.04,-RA,,0.11,WeatherDisplay:10.37,2013-01-31 13:47:00,
2013-01-31 08:52:00,50.7,50.7,28.95,WSW,237,8.1,8.1,100,0.04,-RA,,0.11,WeatherDisplay:10.37,2013-01-31 13:52:00,
2013-01-31 08:57:00,50.9,50.9,28.95,SSW,199,17.3,17.3,100,0.03,-RA,,0.11,WeatherDisplay:10.37,2013-01-31 13:57:00,
2013-01-31 09:02:00,51.3,51.3,28.92,SSW,195,24.2,24.2,100,0.04,-RA,,0.12,WeatherDisplay:10.37,2013-01-31 14:02:00,
2013-01-31 09:07:00,51.7,51.7,28.93,ESE,112,26.5,26.5,100,0.04,-RA,,0.12,WeatherDisplay:10.37,2013-01-31 14:07:00,
2013-01-31 09:12:00,52.0,52.0,28.92,NE,48,8.1,8.1,100,0.04,-RA,,0.12,WeatherDisplay:10.37,2013-01-31 14:12:00,
2013-01-31 09:17:00,52.2,52.2,28.90,SE,131,10.4,10.4,100,0.04,-RA,,0.12,WeatherDisplay:10.37,2013-01-31 14:17:00,
2013-01-31 09:22:00,52.0,52.0,28.90,SSE,151,10.4,10.4,100,0.04,-RA,,0.12,WeatherDisplay:10.37,2013-01-31 14:22:00,
2013-01-31 09:27:00,51.9,51.9,28.89,ESE,102,10.4,10.4,100,0.04,-RA,,0.12,WeatherDisplay:10.37,2013-01-31 14:27:00,
2013-01-31 09:32:00,51.6,51.6,28.89,SSE,161,11.5,11.5,100,0.03,-RA,,0.12,WeatherDisplay:10.37,2013-01-31 14:32:00,
2013-01-31 09:38:00,51.6,51.6,28.88,SSE,147,10.4,10.4,100,0.02,-RA,,0.12,WeatherDisplay:10.37,2013-01-31 14:38:00,
2013-01-31 09:43:00,51.5,51.5,28.88,SE,134,10.4,10.4,100,0.02,-RA,,0.12,WeatherDisplay:10.37,2013-01-31 14:43:00,
2013-01-31 09:48:00,51.5,51.5,28.88,SSW,198,8.1,8.1,100,0.01,-RA,,0.12,WeatherDisplay:10.37,2013-01-31 14:48:00,
2013-01-31 09:53:00,51.6,51.6,28.89,SE,134,17.3,17.3,100,0.01,-RA,,0.12,WeatherDisplay:10.37,2013-01-31 14:53:00,
2013-01-31 09:58:00,51.7,51.7,28.87,WSW,243,21.9,21.9,100,0.00,-RA,,0.12,WeatherDisplay:10.37,2013-01-31 14:58:00,
2013-01-31 10:03:00,52.0,52.0,28.88,SE,136,13.8,13.8,100,0.00,OVC,,0.12,WeatherDisplay:10.37,2013-01-31 15:03:00,
2013-01-31 10:08:00,52.3,52.3,28.87,WSW,254,17.3,17.3,100,0.00,OVC,,0.12,WeatherDisplay:10.37,2013-01-31 15:08:00,
2013-01-31 10:13:00,52.5,52.5,28.86,SE,133,17.3,17.3,100,0.00,OVC,,0.12,WeatherDisplay:10.37,2013-01-31 15:13:00,
2013-01-31 10:18:00,52.9,52.9,28.85,East,97,31.1,31.1,100,0.00,OVC,,0.12,WeatherDisplay:10.37,2013-01-31 15:18:00,
2013-01-31 10:23:00,53.2,53.2,28.84,SE,133,26.5,26.5,100,0.00,OVC,,0.12,WeatherDisplay:10.37,2013-01-31 15:23:00,
2013-01-31 10:28:00,53.5,53.5,28.85,South,175,11.5,11.5,100,0.00,OVC,,0.12,WeatherDisplay:10.37,2013-01-31 15:28:00,
2013-01-31 10:33:00,53.7,53.7,28.85,WSW,251,15.0,15.0,100,0.00,OVC,,0.12,WeatherDisplay:10.37,2013-01-31 15:33:00,
2013-01-31 10:38:00,53.7,53.7,28.84,SW,216,31.1,31.1,100,0.00,OVC,,0.12,WeatherDisplay:10.37,2013-01-31 15:38:00,
2013-01-31 10:43:00,53.5,53.5,28.84,South,181,19.6,19.6,100,0.00,OVC,,0.12,WeatherDisplay:10.37,2013-01-31 15:43:00,
2013-01-31 10:48:00,53.2,53.2,28.84,NW,316,24.2,24.2,100,0.00,OVC,,0.12,WeatherDisplay:10.37,2013-01-31 15:48:00,
2013-01-31 10:53:00,52.5,52.5,28.85,South,188,25.3,25.3,100,0.00,OVC,,0.12,WeatherDisplay:10.37,2013-01-31 15:53:00,
2013-01-31 10:59:00,51.6,51.6,28.86,SSW,198,18.4,18.4,100,0.00,OVC,,0.12,WeatherDisplay:10.37,2013-01-31 15:59:00,
2013-01-31 11:04:00,50.9,50.6,28.87,South,181,43.7,43.7,99,0.00,OVC,,0.12,WeatherDisplay:10.37,2013-01-31 16:04:00,
2013-01-31 11:09:00,49.8,45.8,28.88,SSE,155,43.7,43.7,86,0.00,OVC,,0.12,WeatherDisplay:10.37,2013-01-31 16:09:00,
2013-01-31 11:14:00,49.1,44.5,28.89,SSW,196,24.2,24.2,84,0.00,OVC,,0.12,WeatherDisplay:10.37,2013-01-31 16:14:00,
2013-01-31 11:19:00,48.3,43.4,28.90,NW,326,25.3,25.3,83,0.00,OVC,,0.12,WeatherDisplay:10.37,2013-01-31 16:19:00,
2013-01-31 11:24:00,47.9,43.3,28.90,South,172,19.6,19.6,84,0.00,OVC,,0.12,WeatherDisplay:10.37,2013-01-31 16:24:00,
2013-01-31 11:29:00,47.5,42.9,28.91,South,179,26.6,26.6,84,0.00,OVC,,0.12,WeatherDisplay:10.37,2013-01-31 16:29:00,
2013-01-31 11:34:00,47.0,42.7,28.90,SSW,195,19.6,19.6,85,0.00,OVC,,0.12,WeatherDisplay:10.37,2013-01-31 16:34:00,
2013-01-31 11:39:00,46.4,42.7,28.89,ENE,69,17.3,17.3,87,0.00,OVC,,0.12,WeatherDisplay:10.37,2013-01-31 16:39:00,
2013-01-31 11:44:00,46.1,43.0,28.89,East,96,11.5,11.5,89,0.00,OVC,,0.12,WeatherDisplay:10.37,2013-01-31 16:44:00,
2013-01-31 11:49:00,45.8,42.7,28.89,East,90,4.6,4.6,89,0.00,OVC,,0.12,WeatherDisplay:10.37,2013-01-31 16:49:00,
2013-01-31 11:54:00,45.8,42.7,28.90,SE,130,11.5,11.5,89,0.00,OVC,,0.12,WeatherDisplay:10.37,2013-01-31 16:54:00,
2013-01-31 11:59:00,46.0,42.6,28.91,ENE,73,6.9,6.9,88,0.00,OVC,,0.12,WeatherDisplay:10.37,2013-01-31 16:59:00,
2013-01-31 12:04:00,46.4,42.1,28.92,ENE,58,24.2,24.2,85,0.00,-RA,,0.12,WeatherDisplay:10.37,2013-01-31 17:04:00,
2013-01-31 12:09:00,46.6,41.7,28.93,South,188,17.3,17.3,83,0.00,-RA,,0.12,WeatherDisplay:10.37,2013-01-31 17:09:00,
2013-01-31 12:14:00,46.7,41.8,28.94,SSW,195,33.4,33.4,83,0.00,-RA,,0.12,WeatherDisplay:10.37,2013-01-31 17:14:00,
2013-01-31 12:19:00,47.0,42.7,28.95,SW,215,13.8,13.8,85,0.00,-RA,,0.12,WeatherDisplay:10.37,2013-01-31 17:19:00,
2013-01-31 12:24:00,47.3,42.7,28.95,SW,222,23.8,23.8,84,0.00,-RA,,0.12,WeatherDisplay:10.37,2013-01-31 17:24:00,
2013-01-31 12:29:00,47.3,42.4,28.96,East,99,13.8,13.8,83,0.00,-RA,,0.12,WeatherDisplay:10.37,2013-01-31 17:29:00,
2013-01-31 12:34:00,47.5,42.3,28.97,SSE,161,42.6,42.6,82,0.00,-RA,,0.12,WeatherDisplay:10.37,2013-01-31 17:34:00,
2013-01-31 12:39:00,47.6,41.1,28.98,SSW,193,31.1,31.1,78,0.00,-RA,,0.12,WeatherDisplay:10.37,2013-01-31 17:39:00,
2013-01-31 12:44:00,47.5,39.6,28.98,SW,230,21.9,21.9,74,0.00,-RA,,0.12,WeatherDisplay:10.37,2013-01-31 17:44:00,
2013-01-31 12:49:00,47.3,37.6,28.99,SW,224,27.6,27.6,69,0.00,-RA,,0.12,WeatherDisplay:10.37,2013-01-31 17:49:00,
2013-01-31 12:54:00,47.2,37.2,28.99,East,96,38.0,38.0,68,0.00,-RA,,0.12,WeatherDisplay:10.37,2013-01-31 17:54:00,
2013-01-31 12:59:00,47.0,37.4,29.00,South,174,19.6,19.6,69,0.00,-RA,,0.12,WeatherDisplay:10.37,2013-01-31 17:59:00,
2013-01-31 13:04:00,46.6,37.3,29.00,SE,124,19.6,19.6,70,0.00,BKN,,0.12,WeatherDisplay:10.37,2013-01-31 18:04:00,
2013-01-31 13:09:00,46.0,36.8,29.01,SE,141,10.4,11.2,70,0.00,BKN,,0.12,WeatherDisplay:10.37,2013-01-31 18:09:00,
2013-01-31 13:15:00,45.4,37.2,29.01,NW,305,19.6,19.6,73,0.00,BKN,,0.12,WeatherDisplay:10.37,2013-01-31 18:15:00,
2013-01-31 13:20:00,45.1,37.3,29.01,SSW,203,12.7,12.7,74,0.00,BKN,,0.12,WeatherDisplay:10.37,2013-01-31 18:20:00,
2013-01-31 13:25:00,45.1,37.3,29.02,SSW,209,34.5,34.5,74,0.00,BKN,,0.12,WeatherDisplay:10.37,2013-01-31 18:25:00,
2013-01-31 13:30:00,44.9,37.5,29.02,SSW,209,26.5,26.5,75,0.00,BKN,,0.12,WeatherDisplay:10.37,2013-01-31 18:30:00,
2013-01-31 13:35:00,44.4,37.0,29.02,SE,130,19.6,19.6,75,0.00,BKN,,0.12,WeatherDisplay:10.37,2013-01-31 18:35:00,
2013-01-31 13:40:00,44.1,36.3,29.02,ESE,123,19.6,19.6,74,0.00,BKN,,0.12,WeatherDisplay:10.37,2013-01-31 18:40:00,
2013-01-31 13:45:00,43.9,36.1,29.03,South,189,15.0,15.0,74,0.00,BKN,,0.12,WeatherDisplay:10.37,2013-01-31 18:45:00,
2013-01-31 13:50:00,43.8,35.4,29.03,SSE,152,24.2,24.2,72,0.00,BKN,,0.12,WeatherDisplay:10.37,2013-01-31 18:50:00,
2013-01-31 13:55:00,43.9,34.7,29.04,SW,215,13.8,13.8,70,0.00,BKN,,0.12,WeatherDisplay:10.37,2013-01-31 18:55:00,
2013-01-31 14:00:00,43.9,34.7,29.04,SSW,202,19.6,19.6,70,0.00,BKN,,0.12,WeatherDisplay:10.37,2013-01-31 19:00:00,
2013-01-31 14:05:00,43.9,33.6,29.04,NE,56,36.8,36.8,67,0.00,CLR,,0.12,WeatherDisplay:10.37,2013-01-31 19:05:00,
2013-01-31 14:10:00,43.8,33.6,29.04,South,172,19.6,19.6,67,0.00,CLR,,0.12,WeatherDisplay:10.37,2013-01-31 19:10:00,
2013-01-31 14:15:00,43.8,33.6,29.05,South,181,13.8,13.8,67,0.00,CLR,,0.12,WeatherDisplay:10.37,2013-01-31 19:15:00,
2013-01-31 14:20:00,43.5,33.6,29.05,SSE,152,29.9,29.9,68,0.00,CLR,,0.12,WeatherDisplay:10.37,2013-01-31 19:20:00,
2013-01-31 14:25:00,43.3,33.4,29.06,WSW,256,4.6,4.6,68,0.00,CLR,,0.12,WeatherDisplay:10.37,2013-01-31 19:25:00,
2013-01-31 14:30:00,43.3,33.4,29.07,ESE,104,2.3,2.3,68,0.00,CLR,,0.12,WeatherDisplay:10.37,2013-01-31 19:30:00,
2013-01-31 14:35:00,43.0,33.2,29.08,South,178,17.3,17.3,68,0.00,CLR,,0.12,WeatherDisplay:10.37,2013-01-31 19:35:00,
2013-01-31 14:41:00,43.0,32.8,29.08,SSE,161,18.4,18.4,67,0.00,CLR,,0.12,WeatherDisplay:10.37,2013-01-31 19:41:00,
2013-01-31 14:46:00,43.2,32.2,29.08,SE,140,17.3,17.3,65,0.00,CLR,,0.12,WeatherDisplay:10.37,2013-01-31 19:46:00,
2013-01-31 14:51:00,43.0,31.6,29.08,South,191,21.9,21.9,64,0.00,CLR,,0.12,WeatherDisplay:10.37,2013-01-31 19:51:00,
2013-01-31 14:56:00,42.7,30.6,29.10,SSW,195,19.6,19.6,62,0.00,CLR,,0.12,WeatherDisplay:10.37,2013-01-31 19:56:00,
2013-01-31 15:01:00,42.3,30.6,29.09,SW,233,29.9,29.9,63,0.00,CLR,,0.12,WeatherDisplay:10.37,2013-01-31 20:01:00,
2013-01-31 15:06:00,42.0,29.9,29.10,East,95,10.4,10.4,62,0.00,CLR,,0.12,WeatherDisplay:10.37,2013-01-31 20:06:00,
2013-01-31 15:11:00,42.0,30.3,29.10,SSW,203,16.8,16.8,63,0.00,CLR,,0.12,WeatherDisplay:10.37,2013-01-31 20:11:00,
2013-01-31 15:16:00,41.9,29.4,29.11,SSW,195,12.7,12.7,61,0.00,CLR,,0.12,WeatherDisplay:10.37,2013-01-31 20:16:00,
2013-01-31 15:21:00,41.9,29.0,29.11,SSW,198,15.0,15.0,60,0.00,CLR,,0.12,WeatherDisplay:10.37,2013-01-31 20:21:00,
2013-01-31 15:26:00,41.6,29.1,29.12,SE,133,36.8,36.8,61,0.00,CLR,,0.12,WeatherDisplay:10.37,2013-01-31 20:26:00,
2013-01-31 15:31:00,41.3,28.4,29.12,SSE,157,27.6,27.6,60,0.00,CLR,,0.12,WeatherDisplay:10.37,2013-01-31 20:31:00,
2013-01-31 15:36:00,40.9,27.7,29.13,East,90,13.8,13.8,59,0.00,CLR,,0.12,WeatherDisplay:10.37,2013-01-31 20:36:00,
2013-01-31 15:41:00,40.6,27.8,29.13,SSW,199,27.6,27.6,60,0.00,CLR,,0.12,WeatherDisplay:10.37,2013-01-31 20:41:00,
2013-01-31 15:46:00,40.3,27.1,29.14,SW,217,13.8,13.8,59,0.00,CLR,,0.12,WeatherDisplay:10.37,2013-01-31 20:46:00,
2013-01-31 15:51:00,40.0,27.2,29.14,South,171,19.6,19.6,60,0.00,CLR,,0.12,WeatherDisplay:10.37,2013-01-31 20:51:00,
2013-01-31 15:56:00,39.7,26.9,29.14,ENE,75,27.6,27.6,60,0.00,CLR,,0.12,WeatherDisplay:10.37,2013-01-31 20:56:00,
2013-01-31 16:01:00,39.5,26.8,29.15,SW,219,24.2,24.2,60,0.00,CLR,,0.12,WeatherDisplay:10.37,2013-01-31 21:01:00,
2013-01-31 16:06:00,39.2,26.5,29.16,SSW,198,24.2,24.2,60,0.00,CLR,,0.12,WeatherDisplay:10.37,2013-01-31 21:06:00,
2013-01-31 16:11:00,38.9,25.8,29.16,West,268,27.6,27.6,59,0.00,CLR,,0.12,WeatherDisplay:10.37,2013-01-31 21:11:00,
2013-01-31 16:16:00,38.5,25.0,29.17,SSW,206,4.6,6.2,58,0.00,CLR,,0.12,WeatherDisplay:10.37,2013-01-31 21:16:00,
2013-01-31 16:21:00,38.3,24.8,29.17,SE,138,13.8,13.8,58,0.00,CLR,,0.12,WeatherDisplay:10.37,2013-01-31 21:21:00,
2013-01-31 16:26:00,38.0,24.9,29.18,ENE,71,19.6,19.6,59,0.00,CLR,,0.12,WeatherDisplay:10.37,2013-01-31 21:26:00,
2013-01-31 16:31:00,37.7,24.6,29.18,East,96,13.8,13.8,59,0.00,CLR,,0.12,WeatherDisplay:10.37,2013-01-31 21:31:00,
2013-01-31 16:36:00,37.3,24.3,29.19,South,182,25.3,25.3,59,0.00,CLR,,0.12,WeatherDisplay:10.37,2013-01-31 21:36:00,
2013-01-31 16:41:00,37.2,24.2,29.19,SW,229,15.0,15.0,59,0.00,CLR,,0.12,WeatherDisplay:10.37,2013-01-31 21:41:00,
2013-01-31 16:47:00,36.9,24.3,29.20,East,100,17.3,17.3,60,0.00,CLR,,0.12,WeatherDisplay:10.37,2013-01-31 21:47:00,
2013-01-31 16:52:00,36.7,23.7,29.21,South,176,24.2,24.2,59,0.00,CLR,,0.12,WeatherDisplay:10.37,2013-01-31 21:52:00,
2013-01-31 16:57:00,36.4,23.4,29.22,SE,144,10.4,10.4,59,0.00,CLR,,0.12,WeatherDisplay:10.37,2013-01-31 21:57:00,
2013-01-31 17:02:00,36.3,23.3,29.22,SE,143,17.3,17.3,59,0.00,CLR,,0.12,WeatherDisplay:10.37,2013-01-31 22:02:00,
2013-01-31 17:07:00,36.2,23.6,29.23,NE,45,8.1,8.1,60,0.00,CLR,,0.12,WeatherDisplay:10.37,2013-01-31 22:07:00,
2013-01-31 17:12:00,36.0,22.6,29.24,ENE,78,15.0,15.0,58,0.00,CLR,,0.12,WeatherDisplay:10.37,2013-01-31 22:12:00,
2013-01-31 17:17:00,35.9,22.1,29.24,ENE,68,8.1,8.1,57,0.00,CLR,,0.12,WeatherDisplay:10.37,2013-01-31 22:17:00,
2013-01-31 17:22:00,35.7,21.9,29.24,SSW,193,33.4,33.4,57,0.00,CLR,,0.12,WeatherDisplay:10.37,2013-01-31 22:22:00,
2013-01-31 17:27:00,35.7,20.7,29.25,SSW,199,15.0,15.0,54,0.00,CLR,,0.12,WeatherDisplay:10.37,2013-01-31 22:27:00,
2013-01-31 17:33:00,35.6,21.9,29.25,ESE,113,13.8,13.8,57,0.00,CLR,,0.12,WeatherDisplay:10.37,2013-01-31 22:33:00,
2013-01-31 17:38:00,35.3,22.0,29.26,ESE,109,10.4,10.4,58,0.00,CLR,,0.12,WeatherDisplay:10.37,2013-01-31 22:38:00,
2013-01-31 17:43:00,35.3,21.6,29.26,SSE,161,17.3,17.3,57,0.00,CLR,,0.12,WeatherDisplay:10.37,2013-01-31 22:43:00,
2013-01-31 17:48:00,35.2,21.5,29.27,SSW,203,25.3,25.3,57,0.00,CLR,,0.12,WeatherDisplay:10.37,2013-01-31 22:48:00,
2013-01-31 17:53:00,35.2,21.5,29.27,East,92,11.5,11.5,57,0.00,CLR,,0.12,WeatherDisplay:10.37,2013-01-31 22:53:00,
2013-01-31 17:58:00,35.0,21.3,29.27,SSE,164,20.7,20.7,57,0.00,CLR,,0.12,WeatherDisplay:10.37,2013-01-31 22:58:00,
2013-01-31 18:03:00,34.9,21.6,29.27,South,181,17.3,17.3,58,0.00,BKN,,0.12,WeatherDisplay:10.37,2013-01-31 23:03:00,
2013-01-31 18:08:00,34.7,21.4,29.27,SW,219,15.0,15.0,58,0.00,BKN,,0.12,WeatherDisplay:10.37,2013-01-31 23:08:00,
2013-01-31 18:13:00,34.6,21.3,29.28,SSW,202,11.5,11.5,58,0.00,BKN,,0.12,WeatherDisplay:10.37,2013-01-31 23:13:00,
2013-01-31 18:18:00,34.4,20.7,29.28,ESE,113,11.5,11.5,57,0.00,BKN,,0.12,WeatherDisplay:10.37,2013-01-31 23:18:00,
2013-01-31 18:23:00,34.3,20.2,29.28,NE,51,17.3,17.3,56,0.00,BKN,,0.12,WeatherDisplay:10.37,2013-01-31 23:23:00,
2013-01-31 18:28:00,34.2,19.7,29.29,SW,215,18.4,18.4,55,0.00,BKN,,0.12,WeatherDisplay:10.37,2013-01-31 23:28:00,
2013-01-31 18:33:00,34.2,19.3,29.29,SE,138,18.4,18.4,54,0.00,BKN,,0.12,WeatherDisplay:10.37,2013-01-31 23:33:00,
2013-01-31 18:38:00,34.0,18.6,29.29,SW,220,18.4,18.4,53,0.00,BKN,,0.12,WeatherDisplay:10.37,2013-01-31 23:38:00,
2013-01-31 18:43:00,34.0,19.1,29.30,ESE,123,11.5,11.5,54,0.00,BKN,,0.12,WeatherDisplay:10.37,2013-01-31 23:43:00,
2013-01-31 18:48:00,33.7,18.8,29.30,SSE,168,11.5,11.5,54,0.00,BKN,,0.12,WeatherDisplay:10.37,2013-01-31 23:48:00,
2013-01-31 18:53:00,33.6,19.6,29.30,South,171,11.2,11.2,56,0.00,BKN,,0.12,WeatherDisplay:10.37,2013-01-31 23:53:00,
2013-01-31 18:58:00,33.4,19.4,29.30,South,178,2.8,3.3,56,0.00,BKN,,0.12,WeatherDisplay:10.37,2013-01-31 23:58:00,
2013-01-31 19:03:00,33.3,20.1,29.31,SSE,160,10.4,10.4,58,0.00,BKN,,0.12,WeatherDisplay:10.37,2013-02-01 00:03:00,
2013-01-31 19:08:00,33.1,19.9,29.31,South,191,21.9,21.9,58,0.00,BKN,,0.12,WeatherDisplay:10.37,2013-02-01 00:08:00,
2013-01-31 19:13:00,33.0,19.8,29.31,South,182,8.1,8.1,58,0.00,BKN,,0.12,WeatherDisplay:10.37,2013-02-01 00:13:00,
2013-01-31 19:18:00,33.0,19.4,29.31,NE,51,10.4,10.4,57,0.00,BKN,,0.12,WeatherDisplay:10.37,2013-02-01 00:18:00,
2013-01-31 19:23:00,33.0,19.4,29.31,SE,130,10.4,10.4,57,0.00,BKN,,0.12,WeatherDisplay:10.37,2013-02-01 00:23:00,
2013-01-31 19:28:00,32.8,19.6,29.31,SSW,196,19.6,19.6,58,0.00,BKN,,0.12,WeatherDisplay:10.37,2013-02-01 00:28:00,
2013-01-31 19:33:00,32.8,19.2,29.32,SSE,158,24.2,24.2,57,0.00,BKN,,0.12,WeatherDisplay:10.37,2013-02-01 00:33:00,
2013-01-31 19:38:00,33.0,19.8,29.32,WSW,247,21.9,21.9,58,0.00,BKN,,0.12,WeatherDisplay:10.37,2013-02-01 00:38:00,
2013-01-31 19:43:00,32.8,19.6,29.33,SE,126,21.9,21.9,58,0.00,BKN,,0.12,WeatherDisplay:10.37,2013-02-01 00:43:00,
2013-01-31 19:48:00,32.7,19.9,29.32,SSW,206,5.8,5.8,59,0.00,BKN,,0.12,WeatherDisplay:10.37,2013-02-01 00:48:00,
2013-01-31 19:53:00,32.7,19.5,29.33,SSE,167,29.9,29.9,58,0.00,BKN,,0.12,WeatherDisplay:10.37,2013-02-01 00:53:00,
2013-01-31 19:58:00,32.7,19.5,29.33,South,175,15.4,15.4,58,0.00,BKN,,0.12,WeatherDisplay:10.37,2013-02-01 00:58:00,
2013-01-31 20:04:00,32.7,19.5,29.33,South,169,19.6,19.6,58,0.00,SCT,,0.12,WeatherDisplay:10.37,2013-02-01 01:04:00,
2013-01-31 20:10:00,32.4,18.8,29.34,ENE,66,24.2,24.2,57,0.00,SCT,,0.12,WeatherDisplay:10.37,2013-02-01 01:10:00,
2013-01-31 20:15:00,32.4,17.6,29.34,ESE,116,25.3,25.3,54,0.00,SCT,,0.12,WeatherDisplay:10.37,2013-02-01 01:15:00,
2013-01-31 20:20:00,32.2,18.7,29.34,SSE,165,10.4,10.4,57,0.00,SCT,,0.12,WeatherDisplay:10.37,2013-02-01 01:20:00,
2013-01-31 20:25:00,31.9,18.4,29.34,East,93,19.6,19.6,57,0.00,SCT,,0.12,WeatherDisplay:10.37,2013-02-01 01:25:00,
2013-01-31 20:30:00,31.9,17.1,29.34,SE,128,17.3,17.3,54,0.00,SCT,,0.12,WeatherDisplay:10.37,2013-02-01 01:30:00,
2013-01-31 20:35:00,31.8,17.0,29.35,SSW,206,27.6,27.6,54,0.00,SCT,,0.12,WeatherDisplay:10.37,2013-02-01 01:35:00,
2013-01-31 20:40:00,31.8,17.5,29.35,South,181,26.5,26.5,55,0.00,SCT,,0.12,WeatherDisplay:10.37,2013-02-01 01:40:00,
2013-01-31 20:45:00,31.6,17.3,29.36,East,93,18.4,18.4,55,0.00,SCT,,0.12,WeatherDisplay:10.37,2013-02-01 01:45:00,
2013-01-31 20:50:00,31.5,17.6,29.36,SE,137,8.1,8.1,56,0.00,SCT,,0.12,WeatherDisplay:10.37,2013-02-01 01:50:00,
2013-01-31 20:55:00,31.3,17.4,29.36,ENE,58,4.6,4.6,56,0.00,SCT,,0.12,WeatherDisplay:10.37,2013-02-01 01:55:00,
2013-01-31 21:00:00,31.3,17.8,29.36,ESE,117,10.4,10.4,57,0.00,SCT,,0.12,WeatherDisplay:10.37,2013-02-01 02:00:00,
2013-01-31 21:06:00,31.1,17.6,29.36,SSW,208,11.5,11.5,57,0.00,BKN,,0.12,WeatherDisplay:10.37,2013-02-01 02:06:00,
2013-01-31 21:11:00,31.1,17.2,29.37,SSE,160,10.4,10.4,56,0.00,BKN,,0.12,WeatherDisplay:10.37,2013-02-01 02:11:00,
2013-01-31 21:16:00,31.1,17.6,29.37,SW,236,18.4,18.4,57,0.00,BKN,,0.12,WeatherDisplay:10.37,2013-02-01 02:16:00,
2013-01-31 21:21:00,31.1,17.6,29.37,SSW,206,6.9,6.9,57,0.00,BKN,,0.12,WeatherDisplay:10.37,2013-02-01 02:21:00,
2013-01-31 21:26:00,30.9,16.6,29.37,East,85,13.8,13.8,55,0.00,BKN,,0.12,WeatherDisplay:10.37,2013-02-01 02:26:00,
2013-01-31 21:31:00,30.8,16.9,29.37,SSE,155,8.1,8.1,56,0.00,BKN,,0.12,WeatherDisplay:10.37,2013-02-01 02:31:00,
2013-01-31 21:36:00,30.6,16.7,29.38,South,188,26.5,26.5,56,0.00,BKN,,0.12,WeatherDisplay:10.37,2013-02-01 02:36:00,
2013-01-31 21:41:00,30.5,16.2,29.38,SSW,193,13.8,13.8,55,0.00,BKN,,0.12,WeatherDisplay:10.37,2013-02-01 02:41:00,
2013-01-31 21:46:00,30.3,16.0,29.38,SW,217,17.3,17.3,55,0.00,BKN,,0.12,WeatherDisplay:10.37,2013-02-01 02:46:00,
2013-01-31 21:51:00,30.3,16.0,29.38,ENE,75,11.5,11.5,55,0.00,BKN,,0.12,WeatherDisplay:10.37,2013-02-01 02:51:00,
2013-01-31 21:56:00,30.3,15.6,29.38,ESE,107,13.8,13.8,54,0.00,BKN,,0.12,WeatherDisplay:10.37,2013-02-01 02:56:00,
2013-01-31 22:01:00,30.2,16.4,29.39,SSE,150,8.1,8.1,56,0.00,FEW,,0.12,WeatherDisplay:10.37,2013-02-01 03:01:00,
2013-01-31 22:06:00,30.2,16.0,29.38,South,188,11.5,11.5,55,0.00,FEW,,0.12,WeatherDisplay:10.37,2013-02-01 03:06:00,
2013-01-31 22:11:00,30.0,15.8,29.39,SW,220,10.4,10.4,55,0.00,FEW,,0.12,WeatherDisplay:10.37,2013-02-01 03:11:00,
2013-01-31 22:16:00,29.9,16.1,29.39,ENE,61,15.0,15.0,56,0.00,FEW,,0.12,WeatherDisplay:10.37,2013-02-01 03:16:00,
2013-01-31 22:21:00,29.7,15.9,29.39,East,92,8.1,8.1,56,0.00,FEW,,0.12,WeatherDisplay:10.37,2013-02-01 03:21:00,
2013-01-31 22:26:00,29.7,16.3,29.39,SSW,198,17.3,17.3,57,0.00,FEW,,0.12,WeatherDisplay:10.37,2013-02-01 03:26:00,
2013-01-31 22:31:00,29.7,16.7,29.40,East,86,19.6,19.6,58,0.00,FEW,,0.12,WeatherDisplay:10.37,2013-02-01 03:31:00,
2013-01-31 22:36:00,29.7,15.9,29.40,East,86,31.1,31.1,56,0.00,FEW,,0.12,WeatherDisplay:10.37,2013-02-01 03:36:00,
2013-01-31 22:41:00,29.7,16.3,29.40,SSW,208,11.5,11.5,57,0.00,FEW,,0.12,WeatherDisplay:10.37,2013-02-01 03:41:00,
2013-01-31 22:46:00,29.6,16.2,29.41,SSW,192,11.5,11.5,57,0.00,FEW,,0.12,WeatherDisplay:10.37,2013-02-01 03:46:00,
2013-01-31 22:51:00,29.6,16.2,29.41,South,189,18.4,18.4,57,0.00,FEW,,0.12,WeatherDisplay:10.37,2013-02-01 03:51:00,
2013-01-31 22:56:00,29.6,16.6,29.42,NE,41,18.4,18.4,58,0.00,FEW,,0.12,WeatherDisplay:10.37,2013-02-01 03:56:00,
2013-01-31 23:01:00,29.6,16.6,29.42,South,189,15.0,15.0,58,0.00,FEW,,0.12,WeatherDisplay:10.37,2013-02-01 04:01:00,
2013-01-31 23:06:00,29.6,17.0,29.42,ESE,109,8.1,8.1,59,0.00,FEW,,0.12,WeatherDisplay:10.37,2013-02-01 04:06:00,
2013-01-31 23:11:00,29.6,17.0,29.42,SE,137,8.4,8.4,59,0.00,FEW,,0.12,WeatherDisplay:10.37,2013-02-01 04:11:00,
2013-01-31 23:16:00,29.6,17.0,29.43,SE,144,8.1,8.1,59,0.00,FEW,,0.12,WeatherDisplay:10.37,2013-02-01 04:16:00,
2013-01-31 23:21:00,29.7,17.9,29.43,South,185,18.4,18.4,61,0.00,FEW,,0.12,WeatherDisplay:10.37,2013-02-01 04:21:00,
2013-01-31 23:26:00,29.6,17.8,29.43,SSE,157,17.3,17.3,61,0.00,FEW,,0.12,WeatherDisplay:10.37,2013-02-01 04:26:00,
2013-01-31 23:31:00,29.4,18.3,29.44,South,178,5.8,8.3,63,0.00,FEW,,0.12,WeatherDisplay:10.37,2013-02-01 04:31:00,
2013-01-31 23:38:00,29.1,19.2,29.44,East,99,18.4,18.4,66,0.00,FEW,,0.12,WeatherDisplay:10.37,2013-02-01 04:38:00,
2013-01-31 23:44:00,28.7,19.5,29.44,East,86,6.9,6.9,68,0.00,FEW,,0.12,WeatherDisplay:10.37,2013-02-01 04:44:00,
2013-01-31 23:49:00,28.5,18.6,29.44,SSE,147,6.9,6.9,66,0.00,FEW,,0.12,WeatherDisplay:10.37,2013-02-01 04:49:00,
2013-01-31 23:54:00,28.4,18.1,29.44,South,174,24.2,24.2,65,0.00,FEW,,0.12,WeatherDisplay:10.37,2013-02-01 04:54:00,
2013-01-31 23:59:00,28.2,17.9,29.44,SSW,193,15.0,15.0,65,0.00,FEW,,0.12,WeatherDisplay:10.37,2013-02-01 04:59:00,